Location: Sevilla
(37.3933°N, 5.9839°W)
Time: 12:44:37
(UTC+02:00)

S-56A Canister/Altair - Pass Details

Date: 27 June 2024
Orbit: 638 x 2488 km, 38.9° (Epoch: 14 July)

Event Time Altitude Azimuth Distance (km) Brightness Sun altitude
Rises 03:14:02 0° 288° (WNW) 4,972 11.7 -28.3°
Reaches altitude 10° 03:17:00 10° 285° (WNW) 4,198 11.3 -28.2°
Maximum altitude 03:28:40 60° 209° (SSW) 2,524 9.7 -27.6°
Drops below altitude 10° 03:43:16 10° 135° (SE) 5,140 11.5 -26.7°
Sets 03:47:20 0° 132° (SE) 6,118 11.9 -26.4°
